When you browse on this site, cookies collect data to enhance your experience and personalize the content and advertising you see.
Visit our Privacy Policy to learn more. By continuing to use the site, you agree to this use of cookies and data.
  • în România
  • Lista ţărilor
  • Pe 7 zile
  • Temperatura apei
  • Meteo pe hartă
  • Widget-uri
  • user-avatar
    Intrare

    Meteo pe oră la Penonomé

    Astăzi, 5 Iunie, Vineri

    Timp Temperatura Precipitaţii Vânt Presiune Umiditate
    00:00 +27°C° 0 mm 1 m/s 749 mmHg 92%
    01:00 +26°C° 0 mm 1 m/s 749 mmHg 93%
    02:00 +26°C° 0 mm 1 m/s 749 mmHg 93%
    03:00 +26°C° 0 mm 1 m/s 748 mmHg 93%
    04:00 +26°C° 0 mm 1 m/s 748 mmHg 94%
    05:00 +26°C° 0 mm 1 m/s 749 mmHg 93%
    06:00 +26°C° 0 mm 1 m/s 749 mmHg 92%
    07:00 +27°C° 0 mm 1 m/s 749 mmHg 91%
    08:00 +28°C° 0 mm 1 m/s 750 mmHg 85%
    09:00 +30°C° 0 mm 1 m/s 750 mmHg 79%
    10:00 +31°C° 0 mm 2 m/s 751 mmHg 73%
    11:00 +32°C° 0.6 mm 2 m/s 750 mmHg 72%
    12:00 +32°C° 0.6 mm 2 m/s 750 mmHg 70%
    13:00 +34°C° 0.6 mm 2 m/s 749 mmHg 68%
    14:00 +32°C° 2.1 mm 2 m/s 749 mmHg 72%
    15:00 +31°C° 2.1 mm 2 m/s 748 mmHg 75%
    16:00 +31°C° 2.1 mm 2 m/s 748 mmHg 78%
    17:00 +30°C° 1.6 mm 2 m/s 748 mmHg 82%
    18:00 +29°C° 1.6 mm 2 m/s 748 mmHg 85%
    19:00 +28°C° 1.6 mm 1 m/s 749 mmHg 89%
    20:00 +28°C° 0.3 mm 1 m/s 749 mmHg 90%
    21:00 +28°C° 0.3 mm 1 m/s 750 mmHg 91%
    22:00 +27°C° 0.3 mm 1 m/s 750 mmHg 91%
    23:00 +27°C° 0 mm 1 m/s 750 mmHg 91%

    Mâine, 6 Iunie, Sâmbătă

    Timp Temperatura Precipitaţii Vânt Presiune Umiditate
    00:00 +27°C° 0 mm 1 m/s 750 mmHg 91%
    01:00 +27°C° 0 mm 1 m/s 750 mmHg 92%
    02:00 +27°C° 0 mm 1 m/s 749 mmHg 92%
    03:00 +26°C° 0 mm 1 m/s 749 mmHg 92%
    04:00 +26°C° 0 mm 1 m/s 749 mmHg 92%
    05:00 +27°C° 0.1 mm 1 m/s 749 mmHg 91%
    06:00 +27°C° 0.1 mm 1 m/s 749 mmHg 90%
    07:00 +27°C° 0.1 mm 1 m/s 749 mmHg 89%
    08:00 +28°C° 0 mm 1 m/s 750 mmHg 83%
    09:00 +30°C° 0 mm 1 m/s 750 mmHg 78%
    10:00 +31°C° 0 mm 1 m/s 751 mmHg 72%
    11:00 +31°C° 0.9 mm 1 m/s 750 mmHg 70%
    12:00 +32°C° 0.9 mm 1 m/s 750 mmHg 68%
    13:00 +32°C° 0.9 mm 2 m/s 749 mmHg 66%
    14:00 +32°C° 3.5 mm 2 m/s 749 mmHg 70%
    15:00 +31°C° 3.5 mm 2 m/s 749 mmHg 74%
    16:00 +30°C° 3.5 mm 2 m/s 748 mmHg 79%
    17:00 +29°C° 1.8 mm 2 m/s 748 mmHg 82%
    18:00 +28°C° 1.8 mm 2 m/s 749 mmHg 86%
    19:00 +27°C° 1.8 mm 2 m/s 749 mmHg 90%
    20:00 +27°C° 0 mm 2 m/s 749 mmHg 91%
    21:00 +27°C° 0 mm 2 m/s 750 mmHg 92%
    22:00 +27°C° 0 mm 2 m/s 750 mmHg 93%
    23:00 +27°C° 0 mm 2 m/s 750 mmHg 93%

    Poimâine, 7 Iunie, Duminică

    Timp Temperatura Precipitaţii Vânt Presiune Umiditate
    00:00 +26°C° 0 mm 2 m/s 750 mmHg 93%
    01:00 +26°C° 0 mm 2 m/s 750 mmHg 94%
    02:00 +26°C° 0.1 mm 2 m/s 749 mmHg 94%
    03:00 +26°C° 0.1 mm 1 m/s 749 mmHg 94%
    04:00 +26°C° 0.1 mm 1 m/s 749 mmHg 94%
    05:00 +26°C° 0.3 mm 1 m/s 749 mmHg 94%
    06:00 +26°C° 0.3 mm 1 m/s 749 mmHg 94%
    07:00 +26°C° 0.3 mm 1 m/s 750 mmHg 93%
    08:00 +27°C° 0 mm 1 m/s 750 mmHg 91%
    09:00 +28°C° 0 mm 2 m/s 751 mmHg 88%
    10:00 +28°C° 0 mm 2 m/s 751 mmHg 85%
    11:00 +29°C° 1.1 mm 2 m/s 751 mmHg 83%
    12:00 +30°C° 1.1 mm 3 m/s 750 mmHg 80%
    13:00 +31°C° 1.1 mm 3 m/s 750 mmHg 77%
    14:00 +30°C° 1.6 mm 3 m/s 749 mmHg 80%
    15:00 +29°C° 1.6 mm 4 m/s 749 mmHg 83%
    16:00 +28°C° 1.6 mm 5 m/s 748 mmHg 86%
    17:00 +28°C° 0 mm 4 m/s 749 mmHg 88%
    18:00 +27°C° 0 mm 4 m/s 749 mmHg 90%
    19:00 +26°C° 0 mm 3 m/s 749 mmHg 92%
    20:00 +26°C° 0 mm 3 m/s 749 mmHg 92%
    21:00 +26°C° 0 mm 2 m/s 750 mmHg 92%
    22:00 +26°C° 0 mm 1 m/s 750 mmHg 92%
    23:00 +26°C° 0 mm 1 m/s 750 mmHg 92%

    8 Iunie, Luni

    Timp Temperatura Precipitaţii Vânt Presiune Umiditate
    00:00 +26°C° 0 mm 1 m/s 750 mmHg 92%
    01:00 +26°C° 0 mm 1 m/s 750 mmHg 92%
    02:00 +26°C° 0 mm 1 m/s 750 mmHg 93%
    03:00 +26°C° 0 mm 1 m/s 749 mmHg 93%
    04:00 +26°C° 0 mm 1 m/s 749 mmHg 94%
    05:00 +26°C° 0 mm 1 m/s 750 mmHg 92%
    06:00 +26°C° 0 mm 1 m/s 750 mmHg 91%
    07:00 +27°C° 0 mm 1 m/s 750 mmHg 90%
    08:00 +28°C° 0.1 mm 1 m/s 751 mmHg 85%
    09:00 +29°C° 0.1 mm 1 m/s 751 mmHg 80%
    10:00 +30°C° 0.1 mm 1 m/s 751 mmHg 75%
    11:00 +31°C° 0.3 mm 2 m/s 751 mmHg 73%
    12:00 +31°C° 0.3 mm 2 m/s 751 mmHg 71%
    13:00 +32°C° 0.3 mm 2 m/s 750 mmHg 69%
    14:00 +31°C° 0.7 mm 2 m/s 750 mmHg 72%
    15:00 +31°C° 0.7 mm 1 m/s 749 mmHg 75%
    16:00 +30°C° 0.7 mm 1 m/s 749 mmHg 79%
    17:00 +29°C° 0 mm 1 m/s 749 mmHg 81%
    18:00 +29°C° 0 mm 1 m/s 749 mmHg 83%
    19:00 +28°C° 0 mm 1 m/s 749 mmHg 85%
    20:00 +28°C° 0 mm 1 m/s 749 mmHg 86%
    21:00 +27°C° 0 mm 1 m/s 749 mmHg 88%
    22:00 +27°C° 0 mm 1 m/s 750 mmHg 89%
    23:00 +27°C° 0 mm 1 m/s 750 mmHg 90%

    9 Iunie, Marţi

    Timp Temperatura Precipitaţii Vânt Presiune Umiditate
    00:00 +27°C° 0 mm 1 m/s 750 mmHg 90%
    01:00 +27°C° 0 mm 1 m/s 750 mmHg 91%
    02:00 +27°C° 0.3 mm 1 m/s 749 mmHg 91%
    03:00 +26°C° 0.3 mm 1 m/s 749 mmHg 92%
    04:00 +26°C° 0.3 mm 1 m/s 749 mmHg 93%
    05:00 +26°C° 0 mm 1 m/s 749 mmHg 92%
    06:00 +27°C° 0 mm 1 m/s 749 mmHg 92%
    07:00 +27°C° 0 mm 1 m/s 750 mmHg 91%
    08:00 +28°C° 0.4 mm 1 m/s 750 mmHg 84%
    09:00 +30°C° 0.4 mm 1 m/s 750 mmHg 78%
    10:00 +31°C° 0.4 mm 1 m/s 751 mmHg 71%
    11:00 +31°C° 2 mm 1 m/s 750 mmHg 72%
    12:00 +31°C° 2 mm 2 m/s 750 mmHg 72%
    13:00 +31°C° 2 mm 2 m/s 750 mmHg 73%
    14:00 +31°C° 1.3 mm 2 m/s 749 mmHg 76%
    15:00 +30°C° 1.3 mm 2 m/s 749 mmHg 78%
    16:00 +30°C° 1.3 mm 2 m/s 748 mmHg 81%
    17:00 +29°C° 0.2 mm 2 m/s 748 mmHg 84%
    18:00 +28°C° 0.2 mm 1 m/s 748 mmHg 87%
    19:00 +27°C° 0.2 mm 1 m/s 749 mmHg 90%
    20:00 +27°C° 0 mm 1 m/s 749 mmHg 90%
    21:00 +26°C° 0 mm 1 m/s 749 mmHg 91%
    22:00 +26°C° 0 mm 1 m/s 749 mmHg 91%
    23:00 +26°C° 0 mm 1 m/s 749 mmHg 92%

    10 Iunie, Miercuri

    Timp Temperatura Precipitaţii Vânt Presiune Umiditate
    00:00 +26°C° 0 mm 1 m/s 749 mmHg 92%
    01:00 +26°C° 0 mm 1 m/s 749 mmHg 92%
    02:00 +25°C° 0 mm 1 m/s 748 mmHg 92%
    03:00 +25°C° 0 mm 1 m/s 748 mmHg 92%
    04:00 +25°C° 0 mm 1 m/s 748 mmHg 91%
    05:00 +26°C° 0 mm 1 m/s 748 mmHg 90%
    06:00 +26°C° 0 mm 1 m/s 748 mmHg 89%
    07:00 +26°C° 0 mm 1 m/s 749 mmHg 87%
    08:00 +28°C° 0.1 mm 1 m/s 749 mmHg 81%
    09:00 +30°C° 0.1 mm 1 m/s 749 mmHg 75%
    10:00 +31°C° 0.1 mm 1 m/s 749 mmHg 69%
    11:00 +32°C° 1.2 mm 1 m/s 749 mmHg 68%
    12:00 +32°C° 1.2 mm 2 m/s 749 mmHg 68%
    13:00 +34°C° 1.2 mm 2 m/s 748 mmHg 67%
    14:00 +31°C° 3.2 mm 2 m/s 748 mmHg 73%
    15:00 +30°C° 3.2 mm 2 m/s 747 mmHg 80%
    16:00 +29°C° 3.2 mm 2 m/s 747 mmHg 86%
    17:00 +28°C° 1.5 mm 2 m/s 747 mmHg 88%
    18:00 +27°C° 1.5 mm 2 m/s 747 mmHg 91%
    19:00 +26°C° 1.5 mm 3 m/s 748 mmHg 93%
    20:00 +26°C° 0.2 mm 3 m/s 748 mmHg 94%
    21:00 +26°C° 0.2 mm 3 m/s 748 mmHg 94%
    22:00 +26°C° 0.2 mm 3 m/s 749 mmHg 95%
    23:00 +26°C° 0.1 mm 3 m/s 749 mmHg 95%
    Arată mai mult